sat.trackr.live / text

‹ back to catalog

STARLINK-5389

NORAD 54835 · 2022-177R

PAYLOAD ACTIVE UNKNOWN

§ Identity

Operator
Country
US
Launch date
2022-12-28
Launch site
AFETR
Launch vehicle
Mass (kg)
RCS (m²)

Purposes: comms

External: N2YO · Heavens-Above · Gunter

§ Orbital elements

Epoch: 2026-09-20T22:56:20.795136Z

Period
94.27 min
Inclination
43.0018°
Eccentricity
0.0001085
Mean motion
15.27574998 rev/d
Perigee alt
482.3 km
Apogee alt
483.8 km
Semi-major
6,861.2 km
B*
-1.4374e-5
RAAN
113.5656°
Arg perigee
266.7984°
Mean anomaly
93.2744°
Rev number
20,678

§ Raw data

STARLINK-53891 54835U 22177R   26263.95579624 -.00000657  00000+0 -14374-4 0  99922 54835  43.0018 113.5656 0001085 266.7984  93.2744 15.27574998206785

JSON: /api/v1/satellites/54835 · /tle

For live sub-satellite position, see the globe view (requires WebGL).

§ Visibility from observer

Set your observer location to see the next 7 days of passes ≥ 10°. The values pass through the URL so the page stays shareable.

No JS? Fill the form by hand. The geolocation button needs JavaScript.